Main page
METAR-TAF:

METAR-TAF

Airports :

Tétouan, Morocco

Sania Ramel Airport

latitude: 35-35N, longitude: 005-20W, elevation: 10 m

Current weather observation

The report was made 1 hour and 8 minutes ago, at 22:00 UTC
Wind 3 kt from the Northeast
Temperature 23°C
Humidity 89%
Pressure 1016 hPa
Visibility: 8000 m
Broken clouds at a height of 2300 ft

METAR: GMTN 232200Z 05003KT 8000 BKN023 23/21 Q1016 NOSIG

Time: 00:08 (23:08 UTC)


TAF: missing

Weather observations and forecasts of more than 4000 airports (METAR and TAF reports).

The available stations are represented by yellow and red dots on the map.

Hover mouse over dot to see the name of the station.

Then click to see weather observations and forecasts.

To change the map : click on the green buttons with a black cross to zoom in, on the green button with a dash to zoom out, or on the green arrows for adjacent maps.


METAR-TAF: